Location: Goll?ig?dem
(16.6773°N, 80.7332°E)
Time: 22:04:30
(UTC+00:00)

Ariane H10 - Pass Details

Date: 19 May 2025
Orbit: 353 x 26819 km, 7.0° (Epoch: 18 June)

Event Time Altitude Azimuth Distance (km) Brightness Sun altitude
Rises 13:29:28 0° 247° (WSW) 2,591 6.0 -6.9°
Reaches altitude 10° 13:32:39 10° 208° (SSW) 1,311 3.8 -7.6°
Maximum altitude 13:33:42 12° 181° (S) 1,191 3.3 -7.8°
Drops below altitude 10° 13:34:47 10° 153° (SSE) 1,352 3.4 -8.0°
Enters shadow 13:35:23 - 142° (SE) 1,536 3.6 -8.2°
